Погода в Картейре

Португалия     37°04′08″N   8°06′09″W
темп.,
°C
ветер,
м/с
пор.,
м/с
влажн.,
%
обл.,
%
осадки,
мм/ч
давл.,
гПа
погр.,
м
17 мая, вт
вт1701:00+18сз44780 0.0 102160
04:00+18ссз34780 0.0 102066
07:00+18ссз33760 0.0 102052
10:00+22зсз11661 0.0 1021234
13:00+22юз55705 0.0 1021497
16:00+22зюз677176 0.0 1019276
19:00+23з696294 0.0 1018257
22:00+20ссз586731 0.0 1018123
18 мая, ср
ср1801:00+19ссз47735 0.0 1018116
04:00+19ссз34795 0.0 101668
07:00+19ссз34776 0.0 101658
10:00+22в1263100 0.0 1017176
13:00+22ююз4466100 0.0 1017318
16:00+22зюз4568100 0.0 1015186
19:00+24з5659100 0.0 1014199
22:00+21ссз610614 0.0 1016144
19 мая, чт
чт1901:00+21с46635 0.0 101590
04:00+19с22695 0.0 101530
07:00+19ссв226876 0.0 101516
10:00+22ююв1260100 0.0 1016249
13:00+22ю2359100 0.0 1016326
16:00+22юз1360100 0.0 1014256
19:00+23з336199 0.0 101381
22:00+22с445797 0.0 101435
20 мая, пт
пт2001:00+22св5557100 0.0 101444
04:00+20ссз3361100 0.0 101224
07:00+21св4459100 0.0 101329
10:00+24в5655100 0.0 1014298
13:00+24в71153100 0.0 1014251
16:00+26всв7105297 0.0 1012200
19:00+24всв5861100 0.0 1011157
22:00+22в457398 0.0 101355
21 мая, сб
сб2101:00+22в6116895 0.0 1013194
04:00+20в4778100 0.0 1012130
07:00+19всв459011 0.0 1013131
10:00+22всв227922 0.0 1015182
13:00+21зюз5478100 0.0 1016314
16:00+22юз3471100 0.0 1015204
19:00+25сз445481 0.0 1014195
22:00+21ссз465987 0.0 101770